CAPE
1930 1854 1576 1763 2122 2388 2327 2330 2354 2376 2359 2207 2116 1994 2083 2083 2011 1720 1340 1547 1735 1801 1811 1885 1709 1753 1876 1990 2078 2060 2137 2243 2033 1544 1424 1552 2562 3408 3493 3491 3361 3321 3135 3160 2934 2898 2773 2884 2924 2994 2992 3048 3141 3189 3413 3625 3720 3794 3966 4123 4211 4356 4526 4607 4728 4347 4320 4537 4629 4894 4412 4287 4873 5119 5131 5204 5177 5143 5124 5153 5113 5024 4922 4882 4814
2075 1962 1974 1969 2175 2313 2331 2350 2320 2313 2351 2337 2228 2136 2048 2004 2162 2001 1357 1546 1677 1765 1969 1848 1835 1721 1662 1742 1774 1702 1743 1628 1520 1361 1499 1619 2338 2995 3585 3629 3464 3467 3330 3362 3262 3054 3164 3157 3167 3229 3344 3437 3499 3617 3692 3783 4009 4200 4203 4298 4470 4598 4788 4842 4440 3932 3744 3450 3695 3433 3516 3489 4006 4443 4406 4387 4834 5148 5147 5156 5147 5126 5050 5023 4955
1973 2054 2156 2073 2099 2149 2210 2228 2223 2183 2029 1983 2015 1954 1971 1867 1734 1659 1514 1735 1850 2084 2302 2162 2066 1455 1220 1263 1379 1385 1305 1540 1441 1412 1506 1622 1785 2372 3607 3634 3634 3606 3508 3510 3459 3392 3420 3483 3522 3581 3651 3740 3860 4042 4183 4254 4327 4461 4658 4729 4751 4909 4855 4770 4644 4484 3788 3036 2704 2840 3133 3415 3648 4267 4638 4484 4489 4829 5058 5076 5109 5195 5158 5094 5109
1843 2079 2033 2180 2245 2254 2252 2296 2185 1870 1780 1713 1595 1512 1437 1564 1682 2039 2348 2219 2347 2375 1939 1672 1334 1010 942 898 951 868 1334 1724 1637 1469 1558 1673 1340 1734 2951 3211 3789 3521 3684 3506 3618 3561 3604 3702 3717 3836 3921 3991 4116 4252 4365 4543 4683 4817 4824 4850 4880 4783 4585 4824 4601 4379 4575 3059 2650 2934 3501 3618 3853 4565 4787 4604 4582 4721 4887 4957 5002 5103 5204 5104 5057
1717 1751 2742 2255 2236 2260 2245 2075 1929 1657 1450 1387 1307 1772 2349 2579 1901 2756 2378 2750 1788 1420 1540 1421 1209 947 573 648 699 742 1022 1801 1807 1613 1647 1724 1298 1468 2136 3000 3260 3538 3650 3628 3767 3734 3720 3834 3934 4009 4131 4261 4336 4531 4758 4882 4935 4945 4984 4886 4885 5024 5048 5093 5121 4564 4744 3431 3046 3303 3792 4101 4288 4697 4808 4864 4829 4932 5124 5228 5291 5274 5283 5345 4921
1550 1574 1822 1908 1912 1938 1717 1610 1540 1251 1798 3260 2631 1927 1689 2004 2222 2514 3074 2342 1534 1545 2106 1963 1608 1204 945 596 620 691 835 1739 1868 1727 1742 1776 1254 1364 1686 2504 2749 3018 3416 3713 3777 3811 3884 3973 4022 4098 4184 4336 4494 4577 4708 4677 4706 4678 4620 4719 4839 5109 5232 5328 5406 4862 4609 4551 4626 4356 4341 4749 4866 5172 5285 5339 5416 5443 5526 5582 5567 5516 5226 4882 4936
1456 1447 1676 1702 1680 1191 1503 1565 1532 2515 2336 2909 2088 1701 1886 2413 2920 1954 1941 1887 1948 2318 2718 2372 1820 1119 857 504 581 57 496 1303 1824 1739 1695 1797 1375 1096 1552 1730 2256 2296 2817 3203 3975 3874 3916 4021 4147 4135 4228 4339 4517 4656 4672 4803 4822 4847 4794 4913 5134 5265 5370 5178 4965 4782 4673 4726 3975 4316 4575 4413 4684 4974 5182 5346 5440 5538 5594 5543 5440 5229 5133 5214 5070
1462 1443 1457 1529 1506 1707 1618 2177 3072 2898 3566 2503 3224 1507 1733 2011 2341 2646 2109 1922 2062 2128 2503 2345 1970 1481 824 506 558 494 490 899 1664 1871 1734 1850 1367 1230 1222 1277 1689 1794 2629 2406 2650 3461 4131 4111 4192 4187 4240 4292 4438 4602 4759 4693 4819 5140 5054 5012 5167 5312 5491 5075 4858 4816 4611 4455 4417 4284 4497 4903 5114 4968 4899 5218 5508 5605 5589 5524 5379 5237 5215 5188 5009
1321 1332 1195 1213 1958 2332 2302 2183 3045 2695 2924 3914 3034 3336 2406 2204 2142 2872 2473 1992 2110 2321 2282 2154 2028 1581 508 450 598 395 0 32 1279 1694 1760 1786 1365 1346 958 983 1426 2638 2368 2020 1713 1903 3445 4442 4403 4422 4503 4602 4600 4615 4821 4981 5105 5069 5078 5169 5346 5512 5325 4596 4703 4728 4617 4586 4515 4601 4661 4800 4717 4729 5047 5408 5578 5447 5244 5036 4912 4909 4913 4943 4986
1327 1463 1421 1977 2262 2619 1861 3047 3406 3121 3404 3467 3130 3278 2530 2541 2522 2527 3624 2929 2746 2624 2437 2280 2082 1497 357 392 487 193 565 389 626 1945 1523 1504 1268 1406 1025 990 1017 1286 1733 1819 1288 1127 1340 3077 4689 4613 4636 4667 4654 4674 4880 5052 5147 5150 4854 5026 5441 5659 5001 4609 4680 4625 4667 4739 4882 4777 4950 4913 4983 5099 5408 5515 5390 5163 4903 4656 4612 4648 4618 4599 4684
1496 1903 2416 3134 2627 2354 2361 2647 3308 3492 3551 2741 2224 2463 2773 2842 3083 2868 2698 3011 2910 2794 2600 2153 1782 1167 418 408 518 502 461 484 894 1031 998 1130 1241 1438 1143 1025 934 999 1470 1780 1440 1018 959 917 1975 3537 3637 4432 5008 4908 5002 5086 5021 4950 4949 4614 4613 4891 4426 4447 4461 4730 4697 4811 4862 5058 4977 5041 5269 5539 5604 5322 5121 4832 4562 4501 4603 4617 4510 4307 4323
1821 2496 3349 3651 2598 2785 2919 3713 3610 3300 3132 2544 2081 1891 2364 2858 2591 4343 3018 2623 2982 2490 1453 1148 971 400 1723 638 265 35 189 1018 254 262 362 645 872 1504 1446 1292 1214 1272 1615 1945 1912 1813 1719 1544 1735 1369 1445 1810 3317 4594 5208 5194 5119 5032 4542 4142 4556 4582 4555 4587 4517 4807 4712 4912 5029 5022 5017 5255 5619 5642 5326 5063 4834 4635 4522 4508 4504 4403 4327 4242 4154
2941 3064 3728 5282 3292 2074 2751 3801 3644 4308 3361 2714 2397 2350 2550 4235 3454 2694 3112 2731 2519 2280 1720 1147 724 524 248 305 55 83 849 2122 2 6 334 290 316 797 1091 968 1006 920 773 1151 1481 1524 1577 1720 1821 1688 1370 1048 1249 2585 3699 4884 4765 4290 4187 4458 4468 4613 4741 5042 5170 5158 5154 5277 5278 5174 5338 5647 5627 5318 5013 4765 4659 4642 4676 4478 4355 4297 4245 4193 4160
3797 3559 4194 3286 2230 2665 2901 3866 3373 3785 3599 4207 3697 5394 4651 2816 2473 2182 3367 2721 2254 2076 1930 1026 864 1066 1062 68 29 131 1426 366 396 292 342 420 410 390 582 276 292 162 159 196 537 519 484 426 1031 1581 1567 1382 1129 1719 2776 3757 4415 4451 4530 4684 4942 5368 5393 5439 5260 5325 5359 5300 5521 5592 5799 5626 5174 4852 4681 4640 4666 4805 4613 4258 4165 4066 4088 4102 4224
3377 3814 3938 3644 2636 3113 2578 3666 3868 4319 4691 3040 2934 2764 2834 2845 2229 2436 2822 2196 2611 2631 2451 1698 1404 1271 1493 88 12 125 269 88 264 287 562 359 246 206 200 192 203 112 50 126 254 260 272 385 537 1180 1505 1524 1628 2876 3576 4090 3683 4154 4063 4034 3938 4580 5198 5337 5295 5228 5102 5222 5556 5691 5572 5337 5049 4677 4557 4721 4860 4740 4387 4130 3959 3904 4015 4118 4309
3132 3492 4059 3532 3270 3233 2946 3166 3752 3686 4052 3359 3228 3050 2627 2385 2143 3284 2905 2207 2385 2991 3953 2348 1952 1074 881 1368 1252 678 116 78 422 356 1152 258 190 204 129 137 131 255 181 259 311 430 497 841 1062 878 1234 1442 2120 3422 3828 3575 3962 4912 5374 4799 4072 3792 4171 4784 5442 4871 4727 5158 5449 5499 5234 5030 4921 4685 4539 4575 4531 4419 4332 3972 3788 3804 3958 4133 4232
2477 3511 3874 3473 3064 2823 2758 3018 3807 3648 4060 3403 3353 2997 2942 2716 2441 2973 3168 2446 2462 3452 3043 3443 2402 2455 994 1275 709 156 272 427 750 548 746 1137 1220 711 1249 107 116 148 173 258 355 492 466 573 1110 1801 1119 1660 3387 3281 3046 3220 3560 4639 4946 4638 4984 4628 4316 4920 4971 4337 4687 5127 5087 5265 4994 4945 4778 4465 4441 4472 4446 4241 4046 3819 3710 3748 3916 4042 3894
1989 2654 3128 3541 3071 2827 2668 2793 2904 3433 3780 3387 2907 2938 2965 3031 2574 2811 2912 3639 3035 2564 2704 2098 2787 2484 1747 1546 771 453 449 521 776 202 262 1483 1516 887 196 122 468 441 362 608 568 839 1773 835 1556 2378 2256 1624 1945 3080 3540 3591 4210 3943 4417 4146 4858 4911 4987 4760 4283 4352 4489 4484 4992 4816 4760 4758 4465 4437 4328 4207 4111 4186 3910 3712 3644 3709 3908 3821 3653
1916 2042 2336 3314 3014 2921 2438 2460 3248 3592 4200 3861 3083 2558 2482 2317 2899 2697 2448 3952 2419 1914 2464 1944 1963 1812 2134 1929 2507 1609 662 482 490 1162 181 348 123 918 477 362 914 881 728 543 547 505 742 1490 1198 1405 1484 2422 3165 3113 3128 3290 3713 4090 4116 5164 4887 4914 4925 4222 3927 4029 4046 4245 4727 4517 4740 4361 4301 4269 4065 3930 3984 3931 3835 3663 3603 3781 3833 3545 3418
1889 1889 2070 2970 2961 2954 2777 2820 3292 3340 3396 3680 2774 2391 2130 3261 3853 3069 3492 3751 2192 2176 2632 1994 2438 1960 2379 2077 2233 1915 752 1273 664 250 122 470 517 468 904 1697 1640 954 800 714 608 531 586 831 1232 1024 984 1392 2521 3002 2894 3224 2972 3273 3710 3853 4288 5138 4578 4005 3648 3608 3835 4314 4097 4443 4466 4304 4229 4049 3909 3909 3840 3786 3656 3527 3602 3687 3689 3409 3069
1856 1958 2081 2673 3636 3018 2966 3266 3463 3183 4436 3914 3172 2629 1986 2915 3500 3277 2975 2573 2441 3624 3260 2181 2571 2411 2050 1653 1973 1664 1210 1339 1882 1077 650 626 539 936 867 1167 1114 1048 1119 1036 983 1180 1048 986 1619 1316 1642 1722 1933 2485 2488 2409 2600 2914 3236 3231 4091 4584 4335 3502 2960 2938 3907 4204 3913 4168 4313 4142 3958 3848 3763 3794 3653 3436 3338 3381 3467 3505 3430 3201 2871
1812 1898 1843 2441 3560 3492 3070 3283 3457 3274 3925 3414 2805 2353 2272 3298 2779 2546 2583 2898 3848 3183 2662 2991 3024 2724 2164 1927 1385 1687 1460 1158 1148 1081 1005 717 460 662 946 1142 1036 1086 900 1164 1507 1380 1029 1445 1814 1408 1370 1349 1901 2326 2398 2537 2760 2929 2770 2934 3988 4482 4114 3306 2690 3342 3981 3101 3739 4020 3817 3862 3850 3791 3721 3578 3291 3179 3015 3145 3206 3367 3210 2945 2690
1670 2234 1951 2529 3061 3214 3032 2951 2903 3124 3558 3262 2718 2494 2579 3048 3032 3063 3703 3059 2887 3048 2828 2669 2600 2380 2149 1924 1901 1606 1348 1366 1201 1258 724 918 654 660 839 1163 1153 1026 968 947 1841 1452 1027 1301 1330 988 1029 1826 1790 2019 2098 2378 3354 2997 3085 3113 2952 3817 3631 3133 3272 3522 3538 2852 3477 3693 3568 3682 3685 3583 3413 3138 3060 2927 2816 2940 3038 3088 2972 2718 2499
1608 1940 2359 2760 2592 2740 2923 3035 3090 2691 2517 2564 2444 2655 2839 3060 2874 2786 2688 2616 2734 2937 2426 2291 2215 2110 2339 2428 1895 1867 1708 1434 1031 828 845 746 610 486 506 1028 687 892 951 868 1351 1530 1239 1350 1513 1573 1717 1617 1533 1770 2499 2602 2133 2830 3021 2528 2959 3216 3599 3676 3388 3456 2776 2457 3117 3346 3330 3336 3360 3217 2972 2960 2909 2720 2565 2634 2721 2748 2617 2367 2365
1434 1744 2120 2735 2543 2407 2217 2519 2806 2839 2604 2370 2224 2830 2381 2434 2225 2760 2419 2387 2364 2351 2131 2184 2109 2590 2835 2594 2013 1512 1399 1419 1382 1250 1198 987 640 392 591 894 847 910 901 1190 1064 1231 1508 1088 1010 1014 1370 1598 1594 1528 1759 1769 1788 1865 2483 2439 2935 2994 3160 3557 3532 3303 2774 2583 3204 3190 3091 3067 2943 2886 2717 2814 2762 2497 2156 2405 2449 2427 2248 2172 2050
1392 1632 1874 2223 2486 2414 2250 2266 2436 2561 2530 2512 2708 2785 2698 2387 2595 3082 3034 2983 2688 2621 2499 2678 2941 2916 2538 2244 2040 1724 1581 1606 1589 1414 1276 1082 809 560 636 741 1009 923 1083 1179 1454 1367 963 1232 1125 1029 926 1053 1024 1292 1579 1925 2043 2104 2251 2546 2272 2232 2450 2833 3550 3561 2919 2404 2840 3042 2953 2857 2702 2659 2627 2717 2451 2124 1956 2069 2104 2093 1864 1785 1536
1283 1558 1629 1686 1930 2220 2294 2186 2122 2144 2193 2921 3248 3262 3662 3292 3419 2861 3408 3368 3452 3053 3020 2920 2501 2444 2638 2310 1726 1643 1549 1611 1597 1398 1359 1103 864 788 680 676 851 1095 1422 1735 1716 1568 1186 1528 1680 1289 1070 1529 1393 1356 1594 2043 2195 2143 2456 2488 2436 2170 1838 1906 2341 2910 3347 2924 3044 2906 2775 2586 2502 2425 2409 2422 2016 1854 1760 1704 1748 1682 1386 1259 1179
1356 1307 1368 1519 1700 1930 2057 2003 1961 2016 2233 2634 2795 2826 2750 2826 2675 2694 2366 2807 2728 2862 2866 2619 2659 2577 2398 2103 2305 2180 1767 1578 1602 1656 1690 1425 1319 1170 893 846 792 937 1283 1619 1839 1784 1798 1652 1784 1364 1458 1710 1713 1694 1705 2056 2305 2268 2815 2642 2221 1880 1598 1391 1605 1869 3218 3056 3115 2977 2891 2509 2354 2277 2114 1909 1772 1608 1326 1305 1376 1396 1114 960 938
1296 1360 1234 1302 1513 1644 1759 1764 1778 1764 2144 2448 2705 2718 2718 2701 2831 2737 2526 2317 2462 2320 2441 2509 2500 2413 2308 2337 2352 2239 2168 1790 1815 1803 1630 1474 1558 1491 1195 930 750 893 1176 1345 1451 1527 2004 1970 1901 1454 1813 2042 2050 1845 1854 2074 2445 2642 2654 2497 1968 1538 1265 1183 1097 1135 2670 2383 2422 2559 2278 2245 2093 1852 1698 1549 1308 954 749 768 924 928 768 626 759
1264 1130 1080 957 874 1614 1281 1501 1550 1436 1787 2312 2469 2582 2671 2781 2752 2634 2510 2602 2548 2466 2635 3022 2952 2861 2762 2718 2584 2429 2079 1759 1571 1585 1555 1529 1550 1603 1540 1249 996 1061 1147 1124 1084 1554 1975 2074 1961 1991 2182 2293 2157 2007 2638 2774 2892 2469 2296 1964 1350 1077 896 877 1011 1129 1816 1359 1620 1963 2076 1983 1519 1272 1189 996 823 594 373 327 410 427 348 672 342
1229 1080 902 762 724 903 1205 1221 1326 1349 1527 1811 2243 2328 2376 2534 2756 2768 2600 2628 2608 2500 2449 2641 3004 3123 2975 2653 2384 2221 1902 1870 1841 1937 2023 1972 1876 1741 1545 1398 1471 1372 1177 1210 1182 1286 1816 2217 2026 2208 2457 2333 2240 2007 1883 1805 1774 1626 1490 1373 1271 1121 863 1151 1278 1061 1276 1024 1348 1744 1873 1416 1088 1220 1137 1026 935 656 402 79 93 72 259 830 876
1103 1009 803 623 539 687 1201 1188 1189 1226 1474 1587 1730 2000 2093 2163 2269 2582 2691 2862 2927 2881 2768 2670 2838 2941 2831 2657 2506 2410 2410 2349 2317 2228 2398 2270 2124 1977 1638 1383 1512 1508 1305 1248 1198 1205 1762 2320 2463 2468 2530 2375 2159 1874 1843 1883 1792 1554 1454 1327 1225 1167 941 1061 1054 978 964 906 1232 1200 954 1096 1061 1230 1151 1090 962 671 396 0 0 0 212 847 1036
973 804 878 852 691 719 463 1065 1173 1190 1245 1439 1605 1780 1834 1866 1946 2085 2335 2444 2445 2582 2695 2694 2638 2695 2680 2535 2766 3001 2765 2254 2099 2093 1872 1722 1554 1538 1657 1501 1541 1917 1670 1415 1363 1440 1548 2136 2534 2792 2619 2426 2144 1862 1893 1860 1779 1638 1556 1576 1568 1108 1074 1115 932 828 685 870 935 918 988 1107 1057 1202 1174 1117 988 693 392 87 0 0 0 434 953
655 677 529 687 768 742 508 506 861 1197 1221 1227 1307 1602 1806 1808 1846 1963 2067 2122 2149 2150 2280 2463 2587 2607 2663 2604 2588 2592 2602 2462 2426 2198 1980 1862 1778 1751 1806 1679 1368 2042 2297 1748 1587 1631 1602 1695 2187 2310 2587 2519 2323 2150 2095 1976 1941 1976 1552 1924 1713 1387 1121 1119 977 931 838 756 781 711 1022 1150 1089 1166 1186 1134 1015 698 355 0 0 0 0 0 32
692 595 470 466 494 513 450 504 586 685 788 1056 1250 1302 1587 1800 1819 1938 2066 2078 2037 2122 2367 2608 2669 2638 2639 2710 2777 2854 2897 2588 2304 2102 1924 1876 1836 1776 1654 1523 1418 1386 2173 2404 2109 2014 1980 1977 1986 2262 2413 2502 2408 2265 2040 2208 2170 1860 1664 2034 2036 1763 1353 1068 980 868 793 782 772 808 964 1117 1142 1130 1181 1165 1030 678 302 0 157 0 0 0 0
657 641 538 540 518 427 638 561 484 619 818 974 1079 1043 1122 1391 1713 1815 1930 2028 2065 2045 2106 2307 2588 2787 2890 2947 3023 2979 2747 2445 2299 2196 2136 2120 2037 1904 1729 1837 1705 1460 1568 2348 2327 2036 2178 1905 2058 2684 2845 2573 2470 2072 2355 2442 2327 2052 1804 2168 2095 2104 1501 1007 804 836 820 834 864 887 876 1058 1117 1086 1129 1166 991 624 224 0 150 0 0 0 0
530 587 566 552 548 604 416 601 799 821 773 932 1140 1238 1184 1110 1324 1589 1721 1814 1902 1956 1952 2080 3094 2948 2982 2892 2735 2343 1982 1903 2138 2405 2267 2040 1991 1797 1683 1602 1837 1931 2104 3083 2822 2587 2231 2280 2088 2879 3093 2911 2581 2186 2331 2343 2363 2299 2112 1698 2186 1944 1466 754 701 765 722 769 813 839 939 992 1022 977 1051 1156 998 605 116 0 0 0 0 0 0
899 639 625 474 736 515 664 788 885 804 939 1085 1146 1222 1242 1151 1057 1392 1601 1708 1762 1822 1887 2018 2331 2425 2418 2288 2068 1804 1697 1668 1811 2135 2180 1973 1738 1628 1726 1669 1550 2224 2198 2315 2818 3011 2872 2520 2417 2375 2094 2414 1997 1759 1867 2388 2358 2426 2465 1988 1890 1663 1295 806 874 726 656 737 721 770 854 852 811 785 1038 1163 987 580 9 0 0 0 0 0 0
784 682 628 542 1144 700 753 718 690 782 837 792 894 1115 1186 1065 977 1093 1586 1740 1794 1778 1833 1879 1917 1943 1914 1778 1452 1180 1215 1375 1660 1983 1979 1738 1649 1752 1702 1478 1432 2557 2202 1936 2003 3030 2593 2143 2138 2092 1969 1932 1961 2062 2176 2395 2622 2691 2708 2534 2302 1726 1238 848 504 1214 1430 962 689 635 617 642 700 889 1064 1136 994 564 0 0 0 0 0 0 0
951 1082 1102 1128 1032 899 566 618 839 914 817 748 749 567 641 638 698 797 971 1585 1813 1886 1939 1942 1910 1880 1868 1764 1551 1452 1399 1347 1565 1816 1887 1562 1550 1778 1745 1568 1721 2309 1820 1590 1671 1670 1674 1892 2040 2078 2148 2203 2237 2295 2361 2632 2900 2865 2886 2729 2457 2272 1800 1140 619 480 862 1343 913 644 770 731 822 965 1020 1087 992 692 0 0 0 0 0 0 0
1263 1218 1300 1170 856 797 876 1116 1295 1034 800 784 748 641 548 577 820 640 701 766 1236 1538 1714 1882 1953 1990 1932 1787 1694 1695 1664 2494 2066 1582 1499 1500 1609 1584 1781 1940 1848 1946 1982 2195 1904 1757 1814 1825 1841 1972 2137 2157 2095 2023 1957 1934 2308 2438 2503 2503 2450 2225 1853 1439 856 780 684 553 970 862 965 823 793 913 1014 1099 994 704 145 0 0 0 0 0 0
1336 1502 1421 1360 1385 978 822 892 1007 1019 763 790 1142 1127 938 805 872 991 880 1156 1380 1413 1432 1393 1297 1296 1394 1368 1364 1976 2618 2914 2626 2544 2707 3410 3385 1886 2050 2442 2248 2191 2172 1810 1601 1624 1666 1565 1557 1697 1845 1952 1964 1891 1740 1587 1587 1962 2168 2204 1987 1850 1723 1638 1244 864 894 783 967 1010 1175 1166 1018 934 951 1045 1019 772 285 0 0 0 0 0 0
1568 1982 2519 1750 1510 1240 984 784 870 1007 891 735 1254 686 637 1182 1476 1062 1246 1340 1391 1578 1463 1294 1292 1285 1282 1251 1370 2541 3327 2982 2343 2340 2131 3007 4156 3897 3406 3514 2776 1926 1661 1504 1422 1362 1436 1589 1702 1870 2012 2101 2172 2110 1906 1634 1569 1988 2136 2102 2068 2012 1935 1714 1563 1107 1433 949 1026 1195 1455 1357 1248 1054 992 979 1012 892 226 7 0 0 0 0 0
1676 1978 1650 1635 1642 1750 1438 1011 748 659 677 900 814 700 667 792 1680 1602 1192 1144 1241 1386 1514 1477 1401 1338 1426 1344 1435 1666 1693 1558 1423 1374 1665 2366 3733 3800 3517 3438 3700 3375 2480 1578 1382 1318 1566 1756 1855 1962 2009 2089 2111 1998 1842 1662 1640 1594 1779 2010 2048 1902 1708 1543 1476 1515 1194 1131 1114 1128 1423 1385 1440 1244 1153 1098 1000 947 436 0 0 0 0 0 0
1892 1709 1696 1749 1932 1955 1838 1982 2257 1287 1098 1002 1139 1105 1135 1327 1556 2018 1488 1572 1664 1594 1623 1575 1385 1367 1340 1358 1949 1829 2084 2247 2248 1871 1642 1695 2974 3760 3672 3466 3544 3307 2882 2720 2491 2363 2144 1984 1953 1971 1989 1980 1851 1727 1658 1582 1666 1767 1845 1812 1761 1702 1644 1498 1476 1504 1484 1263 1366 1536 1615 1696 1422 1418 1252 1136 1034 951 584 0 0 0 0 0 0
1758 1904 1886 1768 1794 1929 1918 1750 1679 1331 1278 1234 1314 1370 1416 1491 1525 1474 1495 1893 1643 1570 1570 1558 1486 1511 1484 1442 1427 1864 1868 2300 2308 1990 1794 1857 2007 2057 2323 2627 2681 2844 2928 2766 2736 2569 2251 2284 2182 2061 2089 2044 2018 1997 2179 2315 2004 1951 1859 1798 1751 1692 1636 1629 1598 1542 1638 1557 1469 1248 1055 1203 1399 1507 1402 1258 1081 1014 814 42 0 0 0 0 0
1575 1578 1596 1701 1776 1782 1711 1718 1701 1678 1460 1449 1465 1462 1451 1391 1275 1157 984 1333 1797 1703 1603 1560 1567 1522 1459 1402 1432 1552 1818 1878 2081 1813 1772 1773 2055 2472 2356 2407 2423 2297 2173 2015 1950 2294 2410 2025 2000 2240 2256 2262 2227 2086 1852 1646 1789 1837 1472 1574 1659 1724 1684 1608 1573 1630 1653 1446 1215 1398 1067 1171 1458 1477 1435 1364 1214 1150 928 147 12 0 0 0 0
1320 1340 1376 1390 1436 1507 1494 1446 1532 1606 1711 1735 1784 1842 1820 1691 1499 1242 979 834 1254 1613 1581 1508 1539 1533 1541 1737 1646 1620 1925 1813 1752 1819 1914 1828 1820 2088 2098 2057 1992 1801 1872 2202 2111 1954 2110 1917 1913 1834 1805 1725 1644 1624 1602 1547 1306 945 845 870 862 993 1124 1184 1202 1229 1322 1403 1096 1354 1301 1300 1154 1335 1430 1351 1325 1132 759 244 64 0 0 0 0
1044 1040 1064 1084 1221 1348 1352 1275 1248 1272 1257 1260 1381 1542 1630 1651 1557 1356 1151 934 1078 1647 1413 1318 1584 1848 1879 1826 1469 1300 1743 1897 1804 1692 1508 1510 1512 1436 1264 1229 1310 1278 1263 1180 1291 1135 1140 1289 1369 1374 1347 1305 1256 1145 1050 976 892 724 624 646 719 925 1064 1179 1263 1286 1238 1209 1150 843 1045 1085 926 1182 1304 1251 1187 1166 735 384 94 0 0 0 0
792 797 755 734 709 757 846 939 962 958 958 924 895 857 879 852 948 1085 1066 1053 1702 1214 1300 1461 1840 1950 1463 1534 1709 1678 1752 1790 1578 1367 1286 1248 1218 1095 957 692 624 602 516 484 515 608 592 558 548 720 875 953 992 1030 1036 985 819 592 616 606 651 726 778 820 792 805 850 820 836 710 883 904 958 740 825 859 880 933 687 158 96 0 0 0 0
130 116 92 1 119 170 175 206 199 252 330 460 536 606 681 776 795 825 894 1136 1390 1119 1143 1322 1491 1587 1508 1385 1464 1449 1454 1438 1276 1137 1103 1040 933 655 364 283 325 401 310 285 254 178 116 59 51 45 93 226 539 561 605 675 676 622 527 485 529 518 607 624 649 644 509 499 431 210 441 608 870 412 755 480 546 646 496 228 82 0 0 0 0
Wind_Speed
9 11 14 15 14 12 10 10 8 8 7 8 8 10 10 10 11 11 11 12 13 14 13 14 14 14 13 14 13 11 9 8 6 5 8 7 8 12 17 18 18 19 20 21 21 21 21 19 17 16 15 15 15 15 16 18 20 23 24 23 21 21 20 18 17 12 14 14 12 13 12 13 15 17 18 17 17 18 19 20 20 21 21 23 25
10 11 13 14 14 13 12 11 9 8 7 10 9 10 11 11 11 11 12 14 15 15 14 15 15 14 12 12 13 11 9 7 7 6 6 7 7 8 16 17 18 19 21 21 21 21 19 17 16 16 16 16 15 16 17 19 22 24 23 22 22 21 20 18 18 17 15 14 10 13 14 13 16 17 17 16 17 18 19 20 21 22 23 23 24
12 13 14 14 13 12 12 11 10 9 8 10 11 11 12 12 11 11 11 13 15 14 13 14 15 14 11 9 11 7 7 7 6 5 5 7 7 7 10 18 19 20 20 21 21 20 19 18 18 17 17 16 16 17 18 20 23 23 21 21 21 21 20 18 16 16 18 14 11 14 17 15 17 18 18 17 17 18 20 22 23 24 23 22 23
14 16 14 13 12 12 11 10 11 10 9 11 12 11 12 12 12 12 12 10 12 11 10 11 13 11 11 10 7 4 5 6 6 4 5 6 7 9 10 12 18 20 21 21 20 19 18 19 18 18 17 17 17 18 19 20 22 21 20 21 22 23 23 22 22 21 18 16 16 18 20 18 19 19 19 18 19 20 22 23 25 25 22 21 23
15 17 17 16 13 12 11 10 10 10 11 11 11 11 9 10 11 11 11 10 12 15 15 13 13 14 12 11 8 4 5 5 4 3 7 8 9 10 11 12 12 18 21 20 20 20 20 20 20 18 18 19 19 19 20 21 22 21 21 22 23 24 24 24 25 26 26 29 29 25 24 21 20 20 20 20 21 21 22 23 24 24 21 19 23
17 19 17 15 14 13 12 12 10 10 11 11 10 10 9 9 10 11 12 11 13 14 14 15 16 11 11 12 7 4 4 4 5 6 8 9 9 10 12 12 13 14 14 20 21 20 21 21 21 20 20 20 20 20 21 22 22 22 22 23 24 24 24 23 22 22 22 23 24 26 22 20 19 19 19 20 21 21 22 23 23 22 20 19 23
17 18 17 14 14 14 12 11 11 11 11 10 10 9 8 8 7 10 11 11 11 12 12 14 15 17 16 12 7 nan 5 5 5 6 8 8 9 11 11 12 13 14 14 13 17 22 22 23 23 22 21 20 20 20 21 22 23 23 23 23 24 24 23 22 22 21 21 22 19 18 18 17 15 15 16 17 16 17 20 21 20 20 20 20 25
17 16 16 15 15 14 13 11 11 10 11 10 11 11 9 8 8 7 9 11 10 12 12 13 13 14 11 9 4 3 4 5 5 6 8 9 10 10 12 13 13 14 14 13 12 13 21 22 22 22 20 20 21 21 21 23 24 25 24 23 23 23 22 22 21 21 20 20 18 16 14 13 12 11 11 12 13 15 18 18 16 18 18 19 24
17 16 15 16 15 14 12 13 11 11 12 11 10 9 8 8 10 9 5 8 10 11 12 12 14 13 9 8 2 1 nan nan 7 9 7 9 9 11 12 13 14 15 12 11 10 10 14 20 20 20 19 20 21 22 23 24 24 25 24 23 23 24 22 19 17 18 18 15 11 11 11 11 10 9 9 10 12 14 16 16 15 16 17 17 21
16 16 15 16 15 15 14 15 12 11 10 10 11 9 8 7 9 11 7 6 9 10 11 12 12 12 7 6 4 0 5 8 8 6 8 8 10 12 13 12 12 12 10 10 11 11 10 14 20 19 19 20 21 21 22 23 24 24 23 23 22 23 22 18 16 15 14 11 11 10 10 10 10 9 10 10 11 13 15 15 14 14 15 16 19
16 15 14 14 15 15 15 15 13 11 9 9 9 9 8 7 8 11 10 8 8 9 9 10 12 11 11 7 5 3 4 6 6 7 9 10 11 11 8 9 8 6 7 9 10 10 12 12 12 12 13 19 20 20 21 21 22 23 24 23 22 21 19 16 16 17 14 12 11 11 11 11 11 10 11 11 11 13 15 14 14 14 15 16 18
15 14 13 12 15 16 17 15 12 10 10 9 9 8 8 10 10 9 11 10 8 9 9 11 8 6 7 8 8 nan 5 5 6 9 7 7 8 5 6 5 5 6 10 12 12 10 11 11 11 11 12 14 18 19 19 20 21 22 23 22 21 20 17 16 17 17 14 12 11 11 12 13 11 12 13 12 12 14 14 13 14 16 17 18 18
14 14 14 13 13 15 16 13 11 9 8 8 7 8 8 8 9 7 9 9 9 10 11 8 9 10 8 8 nan nan 9 7 nan nan 5 6 5 6 8 8 9 9 12 14 14 13 13 12 12 14 15 15 15 18 19 20 22 24 24 22 20 19 17 17 17 16 14 13 12 12 14 14 13 13 13 13 13 14 13 13 15 16 18 19 19
13 13 14 13 13 14 14 13 10 8 7 7 7 8 9 10 9 11 8 7 8 8 11 8 10 9 8 nan nan 12 9 7 5 5 5 5 8 8 9 10 9 10 9 11 13 13 13 15 14 15 16 16 16 15 17 18 20 24 23 22 21 19 19 19 18 16 14 13 12 14 14 13 13 13 15 15 15 13 13 14 16 16 18 19 20
12 12 14 15 13 12 12 12 10 9 8 9 8 9 9 10 9 8 11 8 8 9 8 5 8 10 8 nan nan 7 9 nan 7 5 7 5 3 5 2 5 6 5 nan 9 11 11 12 12 13 15 16 16 17 17 17 17 19 21 23 23 22 20 19 20 19 15 13 12 13 14 13 12 13 15 16 16 14 14 14 15 15 16 18 18 20
12 13 14 14 13 12 11 11 11 9 8 8 8 10 10 11 10 9 6 8 10 9 7 6 7 7 8 7 7 6 6 nan 6 7 6 5 3 3 2 1 3 3 5 8 8 8 9 11 12 15 16 16 16 17 17 18 20 22 23 22 22 21 21 20 17 14 13 12 13 13 12 13 14 15 14 15 15 16 16 15 15 17 18 18 19
11 13 14 14 13 11 9 10 9 9 7 7 8 9 10 10 10 9 6 5 9 9 9 9 10 7 4 6 8 8 6 5 6 7 6 5 6 2 1 2 2 2 2 3 3 4 6 6 6 10 13 13 14 15 16 17 17 17 18 19 21 21 20 18 15 14 14 13 12 12 12 13 13 13 15 16 17 18 17 15 15 16 17 17 17
11 12 13 12 12 11 9 9 9 9 8 8 7 7 10 10 8 6 6 5 5 8 9 10 8 8 5 4 2 5 5 3 3 4 7 3 4 3 2 5 4 5 4 6 7 6 7 8 8 8 9 11 13 14 16 16 14 15 16 17 20 20 18 16 16 15 15 13 11 10 10 12 12 14 17 17 17 18 17 16 15 16 17 16 16
11 11 11 10 9 9 7 7 8 8 7 8 8 8 9 9 4 2 4 3 4 6 8 8 11 6 6 7 4 3 2 2 2 2 3 4 2 3 3 2 3 3 3 4 6 6 6 7 8 10 12 12 14 15 14 13 14 15 16 18 19 18 16 15 15 15 14 12 11 11 13 13 15 16 18 18 17 16 16 17 17 16 16 15 16
10 9 8 8 7 7 7 6 7 8 7 7 8 8 8 7 4 4 3 4 3 4 6 6 4 7 6 4 4 5 4 3 2 1 1 1 3 4 0 3 3 4 3 3 6 8 9 9 11 12 12 12 12 13 14 14 13 13 14 16 18 19 18 19 19 19 17 15 14 14 15 16 17 17 18 18 14 14 15 17 17 16 16 15 15
11 9 8 6 6 6 6 7 6 8 7 8 6 7 6 5 4 4 4 5 4 3 3 5 4 5 6 4 4 4 3 2 2 3 3 3 1 1 2 2 1 1 0 2 4 7 10 11 12 12 11 11 12 13 14 14 15 16 16 15 18 21 22 24 23 21 19 17 16 16 16 17 17 17 17 15 12 12 14 16 17 17 15 14 15
10 9 8 6 6 5 6 7 7 7 6 6 4 4 5 5 4 3 4 5 4 2 4 5 4 5 2 1 3 3 3 1 2 4 3 3 3 2 2 1 0 2 2 2 4 7 9 9 8 8 8 9 11 13 15 15 16 16 15 13 17 21 24 25 23 21 21 20 18 17 15 15 16 16 15 14 12 12 13 14 15 16 15 15 15
9 9 7 6 5 5 5 6 6 6 6 5 5 3 4 3 4 4 4 3 4 4 5 5 4 6 5 2 1 1 2 2 2 3 4 4 3 1 0 3 4 1 3 5 5 7 7 7 8 8 9 11 13 14 14 13 14 15 15 15 17 21 24 24 22 23 23 21 18 16 14 14 15 14 13 13 12 12 12 13 13 13 14 14 14
8 8 6 5 4 5 5 4 5 5 5 4 3 3 4 4 5 4 5 5 4 3 3 6 6 6 5 4 2 2 2 4 3 8 8 6 7 4 3 2 2 5 4 4 6 6 6 7 9 9 10 11 11 12 12 11 12 14 14 13 17 21 24 23 23 24 24 21 18 16 15 14 14 13 12 11 11 11 12 12 12 12 12 13 13
8 6 6 4 3 3 4 4 4 4 4 4 3 3 3 3 4 4 4 3 2 2 3 3 3 4 5 5 4 2 0 2 7 8 8 9 9 6 5 6 5 2 3 6 5 4 7 8 8 9 9 9 10 10 10 11 12 12 12 13 17 20 23 22 22 23 22 20 19 19 17 16 14 13 12 12 11 11 11 12 12 12 11 12 12
6 6 5 4 3 3 2 3 2 3 3 2 3 3 3 4 4 4 4 3 3 3 3 3 3 3 3 5 5 3 1 4 7 10 10 10 8 7 6 6 7 4 2 5 5 5 5 6 7 8 8 9 10 9 10 11 12 13 14 15 17 20 22 22 23 24 20 20 19 19 19 17 15 13 12 11 9 10 10 11 12 12 10 10 10
4 5 5 4 3 3 3 3 2 2 3 3 3 3 4 5 5 4 5 5 4 4 4 3 3 4 5 3 4 4 3 4 8 7 8 9 9 9 10 7 6 5 3 5 5 7 7 4 6 6 9 8 9 9 10 12 14 15 15 16 18 20 22 24 24 23 23 23 22 20 20 20 16 14 13 11 9 9 9 10 11 11 9 9 9
5 5 5 4 3 3 3 3 2 2 2 2 2 2 3 4 5 5 5 5 5 5 4 5 4 3 3 4 4 3 3 3 4 5 7 8 8 10 12 12 11 5 4 4 6 6 8 8 5 6 7 8 8 10 11 12 13 15 16 16 17 17 19 24 26 23 23 25 24 23 22 22 19 15 14 12 10 8 8 9 9 9 8 8 8
4 5 4 4 3 2 2 2 2 1 1 1 1 2 3 4 4 4 4 5 6 6 6 6 4 4 4 5 4 3 4 3 3 5 7 6 8 11 13 14 15 11 7 5 4 7 6 10 9 6 6 7 8 9 11 13 13 15 15 16 17 17 20 24 26 21 26 26 25 23 23 22 20 17 15 12 10 9 8 8 7 7 6 6 7
5 5 5 3 3 2 2 3 2 2 1 1 2 3 4 3 3 3 4 5 5 6 5 5 4 4 5 5 5 4 3 4 2 2 6 8 10 11 12 12 15 13 11 8 3 6 6 6 9 8 7 6 8 8 11 11 12 13 15 15 17 18 20 23 19 24 27 27 25 23 23 23 20 18 16 13 12 11 10 9 7 6 5 4 4
5 5 6 5 4 3 2 2 2 2 2 2 2 3 4 3 3 3 4 5 5 3 3 5 4 4 4 4 4 4 3 2 3 4 5 7 7 9 9 9 10 9 10 11 6 3 8 5 4 7 8 6 6 8 9 10 11 12 11 12 14 15 16 16 24 28 29 29 26 22 22 23 21 20 18 15 14 13 12 nan nan nan 4 4 4
3 2 3 4 4 4 3 2 2 3 3 2 2 3 3 3 2 2 3 6 5 3 2 3 4 3 4 4 4 4 4 5 5 5 6 5 5 4 6 9 8 9 11 11 8 2 5 7 5 4 5 7 7 10 9 10 11 10 11 11 12 12 15 18 26 30 31 30 26 22 21 23 22 21 19 17 16 14 12 nan nan nan 4 3 3
4 3 3 2 3 4 5 5 4 4 4 3 4 4 4 3 2 2 3 5 5 3 3 2 3 3 4 4 4 5 6 6 5 5 5 5 4 6 6 8 8 11 12 10 8 2 3 6 7 6 6 7 7 10 9 8 8 8 9 11 11 13 16 17 21 28 30 28 25 22 21 23 23 22 20 19 17 15 13 nan nan nan nan 4 3
4 5 5 5 5 4 5 6 6 6 5 5 4 5 5 4 3 3 3 4 5 4 4 3 3 4 4 4 4 5 7 8 7 7 7 6 7 7 7 9 9 9 9 10 7 6 2 6 7 7 6 8 8 10 9 7 7 8 7 9 10 12 15 17 20 23 26 24 22 21 23 24 24 23 22 20 18 16 14 nan nan nan nan nan nan
13 12 11 9 6 6 6 7 8 8 8 7 6 7 6 5 4 4 5 6 6 5 6 6 6 7 6 7 6 7 8 9 9 8 8 8 9 9 8 8 9 8 9 9 9 6 4 3 6 7 8 8 10 8 8 10 10 9 8 8 10 12 13 16 18 20 22 23 21 21 23 25 25 24 22 21 19 16 14 nan 12 nan nan nan nan
13 13 13 13 12 9 7 7 8 8 9 9 9 8 6 6 6 6 6 8 8 8 8 8 8 10 10 10 10 11 11 9 8 8 10 12 12 12 11 9 10 8 8 10 10 10 8 7 6 8 8 9 8 9 9 9 9 9 11 11 12 12 13 15 17 18 20 22 21 21 23 26 26 25 23 21 19 17 15 nan 13 nan nan nan nan
12 12 11 13 14 15 13 13 12 10 8 9 10 10 9 8 7 7 7 8 9 10 10 9 10 13 17 16 14 12 12 9 7 10 12 13 12 12 11 9 10 8 8 10 11 12 12 11 9 9 9 10 10 9 11 11 10 11 12 13 14 14 14 15 18 18 20 20 20 20 22 25 26 26 24 23 21 19 16 nan nan nan nan nan nan
14 12 12 13 14 15 15 14 15 15 15 15 15 14 12 11 10 8 8 9 10 10 11 11 16 18 15 13 16 16 14 12 9 9 13 14 15 14 12 11 9 10 10 10 12 13 14 12 13 11 12 11 11 12 12 15 13 12 13 14 16 15 16 16 17 20 20 20 20 20 20 21 24 26 26 25 23 21 nan nan nan nan nan nan nan
15 13 12 14 15 15 14 14 15 15 15 15 15 16 16 16 12 10 9 10 11 11 11 17 18 16 15 15 16 17 15 12 11 11 14 17 17 15 13 13 12 13 13 13 14 14 14 13 14 14 13 13 15 13 13 16 16 17 16 15 15 16 16 17 16 18 20 20 19 21 22 22 23 24 25 25 23 21 nan nan nan nan nan nan nan
16 14 14 14 17 17 16 15 15 16 16 17 17 15 13 15 16 13 10 11 14 14 18 19 18 17 16 16 16 15 14 14 17 16 16 14 14 15 14 15 15 16 14 15 16 15 14 15 15 14 16 16 16 17 17 18 17 16 19 21 18 16 14 16 17 17 18 20 20 20 20 22 22 23 24 22 21 22 nan nan nan nan nan nan nan
19 19 20 20 20 19 19 18 18 17 16 14 15 16 14 14 19 21 16 10 15 20 20 19 19 17 17 17 17 17 16 17 22 20 20 17 17 17 16 17 18 18 17 18 17 18 17 17 16 17 16 16 17 17 16 18 18 18 19 22 20 20 18 15 15 18 20 21 21 22 23 24 25 23 23 22 21 22 22 nan nan nan nan nan nan
21 21 21 22 21 20 20 20 20 19 18 17 15 17 17 16 14 18 18 16 19 20 21 21 20 19 18 18 17 14 18 21 22 20 15 13 17 20 20 21 20 20 20 20 20 20 20 19 18 19 18 18 19 20 20 20 20 22 22 23 21 20 21 19 17 18 23 24 25 24 24 26 26 25 25 23 22 25 25 nan nan nan nan nan nan
24 24 24 22 22 22 21 20 20 21 21 19 16 17 15 12 16 17 17 18 20 23 22 23 22 21 20 18 18 18 21 21 21 20 15 12 16 20 22 22 22 22 21 21 20 22 21 20 20 22 21 20 20 23 22 20 22 23 23 25 22 22 21 21 19 19 23 26 25 25 24 27 28 28 26 25 24 26 26 nan nan nan nan nan nan
25 25 25 24 25 25 23 22 22 22 24 26 19 16 15 13 15 20 20 21 22 22 23 23 24 24 23 22 21 22 23 22 22 21 20 18 18 20 20 20 20 20 22 24 22 23 24 22 21 22 24 22 22 26 24 24 21 23 23 24 24 23 22 23 25 25 23 28 27 25 23 28 28 27 27 26 26 27 27 nan nan nan nan nan nan
29 28 28 29 29 28 29 29 29 32 34 35 32 30 27 21 13 15 21 23 25 25 24 24 25 25 26 26 25 25 24 22 23 25 25 25 22 21 20 20 21 19 20 20 22 23 26 24 23 23 26 26 25 26 29 27 27 24 25 25 26 26 26 24 26 26 24 28 27 25 23 27 30 27 27 28 29 28 29 nan nan nan nan nan nan
33 32 31 31 29 28 29 32 37 34 33 35 34 33 31 28 24 20 21 24 27 27 25 24 24 25 26 30 28 28 29 29 31 30 30 28 27 27 27 28 28 26 23 24 22 20 22 24 24 23 25 31 27 29 31 29 27 25 25 25 26 25 26 25 25 26 27 30 29 27 24 26 29 28 27 29 31 31 30 nan nan nan nan nan nan
35 34 32 32 30 30 30 36 36 36 34 39 36 34 31 30 27 24 23 24 26 27 27 27 26 27 28 29 30 32 34 35 35 34 35 34 33 32 31 30 30 29 30 29 30 30 28 27 26 25 26 29 30 30 31 33 32 32 29 25 25 25 25 26 24 25 25 30 28 30 24 27 30 29 28 32 32 32 32 34 nan nan nan nan nan
40 38 38 37 36 34 33 36 39 38 38 41 37 36 35 32 31 28 27 26 26 29 30 32 35 36 35 36 39 38 34 37 38 39 37 36 37 36 35 35 35 34 34 34 33 31 29 30 30 29 30 32 33 32 33 34 33 32 29 27 29 29 27 25 24 27 28 31 32 30 27 26 30 30 29 33 35 35 34 35 nan nan nan nan nan
44 45 43 40 39 41 44 42 41 40 40 41 40 40 38 37 35 32 31 30 29 32 38 40 40 36 37 39 38 38 40 40 41 40 38 39 40 38 37 36 35 36 37 38 38 38 38 35 31 29 28 28 29 29 30 32 33 32 31 28 28 31 29 27 27 29 28 31 31 28 29 25 29 31 34 35 37 36 35 35 nan nan nan nan nan
44 45 44 45 44 43 44 44 42 42 42 42 41 40 39 40 40 37 35 33 34 40 40 43 41 38 42 49 45 43 42 43 43 43 40 40 41 41 39 38 38 39 40 42 41 40 38 35 33 32 32 32 32 32 32 33 35 38 37 31 32 35 32 32 30 31 29 30 31 37 31 27 31 34 37 37 36 35 36 33 nan nan nan nan nan
43 44 nan nan 45 45 45 44 48 45 42 42 44 43 43 43 42 43 41 42 41 38 39 44 44 46 47 50 54 49 47 45 47 46 45 45 45 44 43 41 41 42 44 43 42 40 40 nan nan nan nan 38 38 39 38 34 37 39 40 35 34 33 32 32 32 32 30 30 36 38 31 30 39 35 40 38 34 36 38 36 nan nan nan nan nan
Wind_Direction
185 180 183 175 164 158 159 153 153 146 144 136 144 139 128 116 110 105 101 100 104 110 111 108 105 103 102 106 105 104 100 94 81 72 71 59 48 30 17 18 18 20 23 25 26 27 29 33 32 30 32 37 40 39 35 32 30 24 24 28 32 38 41 38 44 50 62 56 53 64 65 68 65 55 50 47 43 39 35 32 26 19 11 5 4
182 180 178 163 159 159 156 151 144 141 135 133 138 132 116 112 107 102 99 102 108 110 115 111 103 101 102 101 104 103 98 90 78 64 69 65 52 41 20 20 21 24 27 31 30 31 33 35 36 34 33 36 38 39 38 34 27 22 26 33 38 43 44 42 35 22 51 63 59 71 73 74 70 57 49 46 43 37 31 30 27 23 13 8 10
174 171 165 157 155 152 150 144 135 131 128 128 133 121 114 107 102 98 100 104 108 114 120 116 108 110 107 95 101 112 101 91 85 70 58 57 47 39 34 25 25 28 32 34 35 33 33 35 36 35 32 32 35 38 40 36 27 23 29 36 40 43 42 37 46 30 17 58 62 68 70 67 68 58 49 46 40 32 25 24 25 23 17 13 15
165 163 156 153 153 151 143 137 125 129 126 125 129 123 118 116 106 94 91 89 97 105 108 113 121 117 118 108 124 127 96 84 80 65 56 51 31 36 34 32 30 30 32 33 35 36 35 34 36 36 33 31 33 37 40 34 28 27 32 36 39 39 38 27 24 36 7 25 61 65 66 58 58 52 46 42 33 27 21 20 21 24 23 23 25
154 154 158 160 161 148 137 126 125 126 129 124 122 130 116 121 121 121 125 134 140 139 140 142 142 141 141 130 136 142 97 82 82 49 47 33 25 32 32 32 32 32 33 33 33 34 35 36 36 35 31 32 35 36 38 33 28 29 31 35 38 40 37 32 26 21 20 8 21 45 54 56 52 43 37 33 26 22 19 18 20 27 31 29 32
150 153 154 156 153 141 132 124 125 128 143 157 151 142 144 147 127 132 140 147 140 136 144 151 146 144 138 141 136 136 96 81 68 30 30 30 24 26 28 31 33 36 36 34 31 31 33 35 36 34 30 30 33 34 34 32 30 29 28 32 37 37 37 36 28 25 23 25 19 23 38 43 40 32 27 24 20 18 19 19 18 26 33 32 32
148 147 148 150 140 137 132 126 129 148 149 152 147 142 136 131 127 130 139 145 140 138 145 147 149 151 151 141 117 nan 77 63 52 25 25 32 18 30 31 32 34 38 38 33 30 29 32 36 38 36 30 27 31 33 33 32 29 29 28 29 34 35 31 29 29 24 23 20 30 33 38 42 34 23 15 13 13 15 19 20 20 31 40 30 32
143 144 141 140 137 137 131 132 147 152 157 153 131 126 130 131 126 121 138 139 145 141 147 147 146 144 144 146 118 54 58 49 39 32 27 21 31 32 33 34 36 40 40 34 26 28 33 39 41 39 33 28 29 31 32 31 29 28 27 28 30 32 29 26 23 23 23 24 28 33 37 39 37 27 19 12 14 22 25 26 30 45 46 32 33
141 140 140 139 137 136 143 151 149 154 165 153 136 127 130 129 124 121 131 129 134 135 141 146 144 142 142 136 140 346 nan nan 31 36 27 29 37 43 38 39 41 41 39 32 31 33 39 39 41 39 35 32 29 27 28 29 29 28 27 27 27 27 26 25 23 25 28 34 42 42 43 48 43 36 28 20 17 23 32 38 38 45 54 46 33
139 140 143 140 140 134 147 148 157 153 158 147 132 130 126 120 122 123 121 122 120 127 135 138 135 135 131 106 117 50 27 37 38 42 42 44 44 45 41 39 39 44 38 33 27 25 27 38 39 39 37 34 32 27 27 27 28 31 31 29 28 24 22 22 26 33 41 50 49 51 52 55 54 44 36 27 20 28 44 52 54 54 58 56 46
137 139 142 137 141 137 149 150 157 154 149 144 135 137 139 142 128 120 128 113 100 114 120 125 122 134 133 125 137 90 65 60 43 35 55 53 47 49 48 49 43 52 52 47 43 29 20 19 27 34 37 38 36 33 28 28 30 32 32 31 31 27 26 24 30 37 43 50 58 56 57 57 55 49 37 30 23 34 52 62 66 67 66 64 55
134 136 133 138 139 146 147 154 153 152 143 138 130 136 141 139 137 137 137 136 124 127 131 122 109 120 132 142 122 nan 81 71 51 46 54 69 70 85 75 73 52 39 29 35 40 45 33 27 23 26 27 33 42 41 34 31 34 37 37 38 33 30 28 33 39 41 46 56 58 56 57 58 57 45 37 32 29 41 54 60 66 70 72 68 60
135 135 127 138 144 141 146 150 149 145 129 115 115 122 126 128 133 138 138 138 133 140 137 132 154 146 144 140 nan nan 123 127 nan nan 85 64 61 59 56 49 38 30 25 14 17 30 34 33 31 22 21 22 30 37 35 33 37 43 43 37 33 30 35 40 46 47 49 55 55 56 57 50 42 39 40 38 35 45 54 60 62 67 72 71 65
133 131 136 139 139 136 138 141 141 136 127 123 127 126 136 144 146 146 136 142 132 136 136 160 153 133 124 nan nan 131 131 146 150 143 88 43 42 49 32 36 33 37 26 2 1 11 19 26 30 23 22 23 26 25 22 24 32 43 42 38 33 33 40 44 48 48 46 53 51 54 50 42 42 44 47 42 39 48 56 61 59 62 67 68 65
125 132 136 132 134 135 136 139 135 131 125 128 134 132 133 132 137 141 133 146 136 129 143 165 133 124 114 nan nan 133 143 nan 148 145 153 133 115 86 55 15 34 40 nan 358 360 8 14 23 26 22 23 22 22 23 22 22 28 36 39 39 36 37 41 46 47 45 48 51 47 45 39 40 46 50 52 47 45 51 56 58 60 61 61 61 57
125 131 131 127 131 136 140 140 128 125 115 118 132 124 128 126 129 126 125 150 145 136 135 143 131 127 128 133 135 147 156 nan 137 127 148 134 80 131 169 337 317 321 332 350 358 4 11 10 15 19 20 23 24 21 21 23 31 37 36 36 38 38 44 48 44 46 50 49 43 39 35 39 45 52 59 54 51 55 56 56 58 60 61 61 53
125 127 126 123 129 135 135 131 124 119 117 113 116 109 113 112 112 112 116 135 144 140 136 144 148 138 133 153 149 153 139 122 151 130 155 142 160 172 124 297 278 292 325 335 324 354 357 3 23 22 21 28 31 28 29 28 30 32 32 40 43 41 39 39 42 49 50 49 45 36 31 35 44 58 64 61 55 58 59 59 59 61 62 64 61
122 124 124 128 129 130 130 124 119 115 110 97 96 107 111 112 107 98 114 122 131 152 144 141 150 157 158 128 86 130 120 143 176 131 141 125 148 181 261 289 330 347 351 347 349 2 3 7 7 6 17 28 33 36 35 34 33 34 31 36 44 43 40 38 41 47 48 50 43 32 29 35 45 57 63 63 60 60 64 67 66 65 64 66 69
120 121 124 128 128 124 120 116 113 112 105 96 97 91 98 107 106 108 112 127 145 146 142 145 155 157 169 141 128 135 93 184 156 157 164 141 185 180 203 240 307 336 348 0 6 358 1 10 16 13 15 19 22 25 26 32 39 40 37 40 45 46 41 44 50 54 55 51 42 28 26 32 40 50 58 62 60 60 64 69 70 71 72 71 70
119 119 121 126 122 112 113 112 112 112 105 88 85 92 95 107 100 110 130 138 146 135 130 151 164 127 149 153 164 171 185 190 246 266 243 230 131 150 159 311 331 357 5 17 16 14 11 18 25 21 15 18 18 18 24 30 37 38 37 44 43 36 31 37 43 44 44 44 34 26 25 28 35 43 51 58 59 62 64 66 71 76 79 76 71
123 118 122 119 115 108 107 107 106 106 109 101 99 95 95 102 127 147 128 146 156 150 151 133 138 127 157 156 187 208 197 225 237 253 279 305 28 7 96 138 282 313 152 37 27 19 20 20 16 19 13 14 22 27 29 29 31 33 35 41 36 26 25 31 34 36 39 35 31 28 24 26 32 40 47 52 56 60 66 68 72 75 79 77 73
123 123 122 118 112 106 101 100 104 107 115 110 115 107 108 111 119 137 153 150 163 161 141 139 141 132 134 140 203 191 216 247 240 262 276 301 333 6 358 339 11 25 335 32 24 24 25 27 25 27 21 17 22 27 27 27 26 28 28 33 30 24 27 30 31 35 36 29 27 27 26 29 33 38 42 47 50 55 61 64 70 74 77 76 76
121 124 118 119 115 108 98 100 110 115 120 130 125 116 96 109 132 160 167 148 139 141 164 162 158 161 157 188 211 297 329 347 0 324 306 312 292 299 336 354 360 32 347 350 21 23 19 16 20 27 19 17 20 21 23 23 22 23 31 37 33 29 30 30 31 35 35 27 26 20 27 36 39 38 38 45 48 50 56 59 64 70 76 78 80
125 125 124 118 116 116 118 119 117 120 120 129 137 153 150 155 157 168 156 150 162 174 163 155 156 156 152 153 174 287 321 356 349 318 321 326 315 331 340 301 294 349 18 344 1 13 10 11 16 16 28 25 21 18 17 17 24 28 20 33 37 35 33 27 32 37 34 24 21 19 24 35 43 45 44 48 48 52 57 57 59 59 66 78 84
127 125 121 118 122 120 124 118 124 125 128 136 146 177 172 181 180 173 162 156 147 175 164 148 153 155 141 171 189 209 331 358 298 307 303 300 304 311 303 307 335 340 328 309 336 345 355 3 2 14 26 27 22 20 10 15 17 25 24 28 40 35 34 31 36 41 33 24 22 21 23 30 39 45 49 51 46 50 54 59 60 53 56 70 78
134 127 122 128 136 111 113 103 118 130 134 135 165 180 189 196 184 192 193 178 190 199 206 188 192 182 206 175 170 183 244 285 293 297 302 297 302 321 314 296 315 353 318 298 319 308 318 334 358 8 9 14 17 6 4 9 14 23 25 24 34 35 33 32 35 41 25 25 24 25 27 28 32 42 49 51 52 51 50 57 58 59 57 63 72
138 135 140 141 136 138 126 110 114 130 139 157 183 186 200 206 207 208 201 204 210 214 212 217 198 197 204 211 191 196 208 280 295 316 316 326 324 322 309 312 304 302 310 315 314 330 355 326 344 349 356 359 4 357 359 2 11 24 27 20 27 32 33 36 40 39 15 17 19 23 27 28 27 34 43 46 49 53 54 53 57 61 60 62 64
161 165 143 155 151 143 141 116 137 139 144 161 183 203 214 218 203 206 197 220 222 232 231 229 224 217 210 221 231 202 214 215 277 310 325 335 337 313 313 316 326 338 308 320 312 324 331 324 319 341 345 351 359 349 354 1 7 22 25 16 23 25 32 38 41 37 13 12 15 16 23 30 21 23 33 37 41 48 53 57 56 58 63 70 70
163 182 172 164 151 149 136 115 118 138 168 195 239 233 235 233 231 226 217 216 229 232 235 234 230 220 232 241 242 223 203 223 240 286 311 319 326 322 320 327 322 321 327 321 326 320 305 321 319 324 328 337 349 348 349 355 4 11 7 7 13 17 29 36 39 25 7 6 10 12 18 26 17 17 23 26 29 32 42 52 56 59 60 72 76
173 165 182 188 180 143 149 139 142 185 184 256 270 271 260 250 242 245 249 249 242 240 249 253 238 250 260 245 244 222 227 217 205 253 290 309 309 314 322 323 316 329 324 322 340 320 309 297 318 316 315 329 334 342 339 349 4 7 2 3 4 9 28 37 27 4 1 0 3 6 12 17 11 14 18 15 18 24 31 37 48 59 65 68 77
182 183 182 181 208 191 186 160 183 188 209 228 248 253 262 265 247 243 245 259 264 256 245 258 257 262 249 235 231 224 231 251 257 262 265 276 287 303 313 313 315 321 318 306 299 266 303 299 286 308 314 313 309 310 317 332 338 336 341 352 356 11 26 8 354 357 355 357 357 359 6 10 4 12 15 11 14 13 17 nan nan nan 61 63 56
219 215 205 193 203 225 223 232 233 223 224 216 230 237 249 259 254 247 251 266 272 268 240 255 258 250 240 235 234 247 244 246 260 284 287 280 277 248 264 291 303 303 295 300 314 341 294 310 306 293 302 303 306 307 318 325 334 331 339 349 353 1 350 353 350 353 354 354 355 356 357 3 358 7 8 10 11 7 6 nan nan nan 35 61 51
279 282 283 264 237 241 253 246 247 256 254 238 238 243 252 250 239 247 250 272 276 267 259 225 243 247 250 247 248 252 256 255 271 278 278 279 260 251 260 272 280 291 298 305 312 333 254 295 302 304 290 288 304 310 309 322 332 339 340 344 346 339 337 341 348 351 352 352 352 353 355 355 352 358 359 5 12 7 358 nan nan nan nan 33 44
277 291 290 278 270 281 278 269 262 263 261 260 259 264 270 272 273 267 268 275 275 271 272 266 254 263 266 264 253 261 273 282 285 289 297 276 261 255 258 276 281 288 296 302 320 304 286 248 269 286 293 298 305 310 315 323 332 332 334 339 341 333 333 336 338 344 349 348 346 348 350 347 348 350 352 0 8 6 358 nan nan nan nan nan nan
233 230 230 230 242 281 287 288 287 276 267 264 263 270 275 283 292 286 286 289 293 291 290 291 284 283 285 279 274 269 272 279 285 285 272 267 269 280 279 272 282 285 298 313 305 311 314 295 299 293 300 302 313 318 317 328 330 331 334 336 335 333 329 331 333 336 344 345 343 343 343 340 343 342 347 354 2 4 358 nan 347 nan nan nan nan
233 237 241 243 245 233 235 276 292 288 282 277 273 269 277 281 280 287 284 286 291 294 291 291 291 292 296 288 271 258 258 263 272 274 274 274 280 281 285 283 287 292 295 302 317 316 310 311 283 303 305 309 313 317 323 318 317 320 326 326 323 326 327 323 329 331 339 341 340 338 334 333 335 335 341 349 356 360 0 nan 347 nan nan nan nan
247 252 254 248 243 251 250 235 230 239 264 286 288 280 270 265 270 275 277 278 286 289 290 290 297 283 271 272 278 277 271 267 271 281 284 287 288 289 294 292 293 296 288 293 301 303 303 310 303 297 300 302 310 312 312 314 308 309 309 310 319 323 321 320 320 323 329 336 335 332 326 328 328 329 334 342 349 356 355 nan nan nan nan nan nan
254 258 263 260 260 257 258 257 255 252 248 243 245 248 253 261 271 272 271 274 278 283 285 289 276 278 287 284 272 267 263 267 275 282 280 286 287 289 291 293 295 287 289 285 284 290 298 306 306 295 291 305 297 306 310 310 317 312 306 308 312 317 321 321 322 323 328 330 328 325 325 327 326 326 330 333 340 348 nan nan nan nan nan nan nan
252 252 256 265 269 267 260 265 272 270 262 257 258 258 256 255 250 260 280 286 286 284 286 279 284 285 282 277 276 279 284 286 282 286 288 284 286 292 296 295 288 284 284 281 278 282 288 290 289 297 295 294 303 304 299 299 307 311 314 308 312 320 321 324 326 324 325 326 328 330 331 332 329 328 328 328 333 339 nan nan nan nan nan nan nan
238 242 252 261 263 267 272 273 267 263 265 266 267 272 276 275 271 262 256 289 295 283 277 282 283 283 284 283 281 280 282 278 269 261 268 289 293 291 294 287 284 283 283 278 276 280 281 282 288 288 295 296 291 299 295 290 294 301 313 315 320 319 321 317 322 322 319 320 320 321 322 321 321 321 323 325 331 333 nan nan nan nan nan nan nan
235 235 235 241 250 256 260 269 270 267 267 271 278 283 274 264 271 268 258 244 281 286 282 280 280 280 281 281 282 286 286 284 297 308 304 310 299 296 288 287 287 289 288 283 286 283 285 288 289 292 292 292 297 298 296 299 310 316 306 306 311 314 312 307 313 317 317 313 315 316 319 320 319 323 323 326 330 332 330 nan nan nan nan nan nan
239 244 241 240 245 253 255 257 261 264 266 267 270 278 271 260 273 279 285 291 287 285 283 282 280 278 279 277 279 297 293 291 292 293 298 312 304 295 292 291 291 291 291 292 293 293 292 294 298 298 297 300 300 303 305 305 306 299 297 304 308 307 301 310 313 317 315 312 312 316 316 313 315 317 318 325 325 325 322 nan nan nan nan nan nan
240 243 246 248 247 243 244 255 262 262 259 259 265 274 278 278 278 285 281 275 279 283 284 284 283 284 281 282 277 284 285 285 284 294 293 282 294 295 295 296 293 290 289 291 292 291 292 294 295 295 298 299 300 298 299 302 300 304 304 302 310 304 305 306 309 302 307 313 312 310 311 311 310 316 318 321 321 318 319 nan nan nan nan nan nan
242 244 244 246 246 246 251 259 261 261 255 238 237 255 260 269 292 291 288 286 285 281 279 282 282 284 285 281 280 276 273 276 274 272 271 266 273 281 286 290 293 299 293 290 287 284 286 290 290 295 293 295 293 291 292 293 297 295 299 301 304 308 306 307 306 309 306 311 311 307 309 306 309 310 311 315 315 315 316 nan nan nan nan nan nan
248 248 244 242 243 245 249 255 253 247 247 234 231 228 231 234 253 282 284 284 280 277 277 277 278 279 281 280 269 268 271 283 277 271 269 266 264 268 274 277 278 278 279 279 280 282 283 286 287 287 291 288 288 290 291 291 292 295 295 299 299 302 304 304 307 306 304 308 306 305 305 305 308 309 309 308 309 308 308 nan nan nan nan nan nan
251 250 248 244 241 241 246 252 254 251 243 232 232 234 237 237 239 250 274 275 276 275 273 274 273 275 276 278 281 278 273 271 270 270 269 268 267 267 268 270 272 272 272 279 282 283 282 283 284 285 284 286 289 287 287 288 287 290 293 299 297 297 298 303 301 302 300 301 310 303 300 302 308 307 308 303 302 302 306 nan nan nan nan nan nan
250 252 251 250 251 248 246 248 254 252 245 235 240 241 245 244 243 246 258 260 267 270 268 267 266 266 267 271 274 273 271 271 270 270 268 266 266 266 269 270 271 273 274 273 275 277 282 285 285 284 281 282 284 283 283 282 283 283 287 290 292 291 289 288 289 297 299 305 305 303 308 300 301 304 304 299 299 299 301 307 nan nan nan nan nan
245 247 248 248 247 247 247 249 252 249 243 234 238 241 241 243 239 257 258 259 262 264 265 261 258 255 257 261 264 265 267 268 265 264 265 269 269 268 268 268 270 272 276 277 277 278 278 279 280 280 278 277 275 277 278 279 279 280 280 282 285 289 291 293 295 290 295 296 302 305 302 300 297 304 298 294 295 298 298 301 nan nan nan nan nan
246 246 247 247 246 248 250 250 251 251 246 236 235 240 244 242 245 252 256 260 262 261 258 255 254 259 264 266 265 267 267 265 261 259 258 263 267 266 265 266 270 274 277 278 275 269 266 265 268 271 276 278 281 281 282 287 287 284 282 281 284 287 291 293 290 288 292 290 287 293 289 291 296 298 291 292 297 297 299 298 nan nan nan nan nan
250 247 247 247 247 248 251 251 251 252 250 242 237 237 242 246 249 252 254 258 265 265 267 265 264 261 262 272 267 265 265 263 260 259 256 262 265 264 264 264 266 270 273 272 273 272 266 266 270 273 276 278 279 281 283 285 288 290 290 289 282 282 287 288 285 284 284 283 289 284 285 296 290 289 287 285 285 287 293 294 nan nan nan nan nan
253 251 nan nan 250 250 250 252 251 252 252 249 243 241 241 241 251 256 256 257 257 259 268 271 267 262 260 259 261 262 263 263 263 262 260 263 267 265 265 266 267 268 269 268 270 270 271 nan nan nan nan 276 277 281 283 287 291 293 293 293 285 284 283 283 282 279 279 281 278 275 289 287 286 289 288 286 290 291 295 295 nan nan nan nan nan